�������l�o���
Date,Time,MP-1(��Sv/h),MP-2(��Sv/h),MP-3(��Sv/h),MP-4(��Sv/h),MP-5(��Sv/h),MP-6(��Sv/h),MP-7(��Sv/h),MP-8(��Sv/h),����,����(m/s),���J
2021/05/31,00:00,0.620,0.920,0.580,1.116,0.797,0.371,0.644,0.603,���k��,3.6,��
2021/05/31,00:10,0.620,0.920,0.581,1.118,0.797,0.372,0.643,0.602,���k��,3.3,��
2021/05/31,00:20,0.620,0.919,0.582,1.116,0.796,0.371,0.645,0.602,���k��,3.0,��
2021/05/31,00:30,0.621,0.919,0.581,1.117,0.795,0.373,0.645,0.603,���k��,2.3,��
2021/05/31,00:40,0.620,0.919,0.582,1.117,0.796,0.372,0.644,0.602,���k��,2.0,��
2021/05/31,00:50,0.620,0.920,0.582,1.118,0.796,0.371,0.643,0.602,��,2.3,��
2021/05/31,01:00,0.621,0.921,0.582,1.118,0.797,0.372,0.645,0.602,��,2.0,��
2021/05/31,01:10,0.620,0.919,0.580,1.118,0.796,0.372,0.642,0.602,��,2.2,��
2021/05/31,01:20,0.619,0.919,0.582,1.118,0.795,0.371,0.645,0.604,��,2.5,��
2021/05/31,01:30,0.619,0.919,0.580,1.120,0.798,0.373,0.644,0.603,���k��,3.4,��
2021/05/31,01:40,0.619,0.918,0.583,1.117,0.797,0.370,0.643,0.602,�k��,2.5,��
2021/05/31,01:50,0.621,0.918,0.581,1.117,0.796,0.370,0.642,0.604,�k��,3.0,��
2021/05/31,02:00,0.621,0.920,0.581,1.116,0.796,0.371,0.643,0.602,�k��,3.3,��
2021/05/31,02:10,0.619,0.920,0.582,1.120,0.795,0.371,0.643,0.604,�k��,3.1,��
2021/05/31,02:20,0.617,0.918,0.582,1.117,0.795,0.372,0.644,0.602,�k��,4.1,��
2021/05/31,02:30,0.621,0.916,0.581,1.119,0.797,0.372,0.644,0.602,���k��,3.6,��
2021/05/31,02:40,0.620,0.919,0.582,1.119,0.796,0.371,0.644,0.603,��,3.3,��
2021/05/31,02:50,0.619,0.918,0.584,1.120,0.797,0.371,0.643,0.602,���k��,3.3,��
2021/05/31,03:00,0.619,0.920,0.582,1.118,0.798,0.371,0.643,0.603,�k��,3.6,��
2021/05/31,03:10,0.618,0.916,0.579,1.117,0.795,0.372,0.643,0.603,��,2.2,��
2021/05/31,03:20,0.618,0.918,0.580,1.117,0.794,0.371,0.643,0.603,�쐼,2.5,��
2021/05/31,03:30,0.620,0.917,0.580,1.118,0.796,0.371,0.645,0.603,���쐼,1.7,��
2021/05/31,03:40,0.617,0.917,0.583,1.116,0.795,0.371,0.644,0.603,��,2.6,��
2021/05/31,03:50,0.620,0.919,0.582,1.117,0.795,0.369,0.644,0.603,��,4.2,��
2021/05/31,04:00,0.618,0.918,0.581,1.116,0.796,0.369,0.644,0.601,��,4.6,��
2021/05/31,04:10,0.617,0.919,0.581,1.117,0.796,0.371,0.642,0.604,��,4.1,��
2021/05/31,04:20,0.618,0.919,0.581,1.118,0.796,0.371,0.643,0.602,��,2.9,��
2021/05/31,04:30,0.620,0.918,0.582,1.117,0.792,0.370,0.644,0.602,��,4.5,��
2021/05/31,04:40,0.618,0.919,0.583,1.118,0.795,0.371,0.643,0.603,��,4.4,��
2021/05/31,04:50,0.618,0.917,0.582,1.118,0.794,0.370,0.644,0.602,��,3.7,��
2021/05/31,05:00,0.618,0.919,0.581,1.117,0.794,0.370,0.644,0.601,��,4.3,��
2021/05/31,05:10,0.618,0.917,0.582,1.118,0.796,0.371,0.643,0.603,��,2.6,��
2021/05/31,05:20,0.620,0.919,0.582,1.118,0.796,0.371,0.643,0.602,�k��,2.2,��
2021/05/31,05:30,0.618,0.919,0.582,1.118,0.795,0.372,0.643,0.603,�k��,4.3,��
2021/05/31,05:40,0.618,0.918,0.581,1.118,0.796,0.369,0.643,0.602,�k��,4.1,��
2021/05/31,05:50,0.619,0.918,0.582,1.117,0.795,0.371,0.644,0.604,�k��,4.6,��
2021/05/31,06:00,0.621,0.918,0.584,1.117,0.796,0.372,0.645,0.603,�k��,2.9,��
2021/05/31,06:10,0.621,0.921,0.583,1.119,0.796,0.371,0.645,0.603,�k��,3.2,��
2021/05/31,06:20,0.621,0.917,0.583,1.119,0.796,0.372,0.644,0.604,�k��,3.2,��
2021/05/31,06:30,0.620,0.915,0.583,1.117,0.795,0.371,0.644,0.603,���k��,2.8,��
2021/05/31,06:40,0.619,0.919,0.582,1.118,0.794,0.372,0.645,0.603,��,1.7,��
2021/05/31,06:50,0.620,0.916,0.583,1.117,0.796,0.373,0.645,0.602,�k��,0.6,��
2021/05/31,07:00,0.621,0.919,0.581,1.120,0.796,0.370,0.645,0.603,-,CALM,��
2021/05/31,07:10,0.621,0.917,0.581,1.118,0.797,0.369,0.645,0.604,�쐼,0.9,��
2021/05/31,07:20,0.622,0.917,0.582,1.120,0.796,0.370,0.645,0.603,���쓌,1.5,��
2021/05/31,07:30,0.621,0.915,0.583,1.120,0.796,0.368,0.645,0.603,-,CALM,��
2021/05/31,07:40,0.620,0.919,0.583,1.118,0.795,0.370,0.644,0.603,��,1.7,��
2021/05/31,07:50,0.620,0.921,0.581,1.120,0.796,0.372,0.644,0.603,�쓌,1.5,��
2021/05/31,08:00,0.620,0.917,0.583,1.118,0.795,0.370,0.644,0.602,���쓌,2.6,��
2021/05/31,08:10,0.620,0.917,0.581,1.120,0.796,0.370,0.644,0.602,���쓌,3.0,��
2021/05/31,08:20,0.620,0.918,0.580,1.120,0.796,0.370,0.645,0.602,���쓌,2.3,��
2021/05/31,08:30,0.621,0.916,0.581,1.122,0.797,0.369,0.644,0.601,���쓌,2.8,��
2021/05/31,08:40,0.623,0.918,0.581,1.120,0.797,0.370,0.643,0.601,���쓌,2.9,��
2021/05/31,08:50,0.622,0.916,0.581,1.121,0.797,0.370,0.644,0.601,��,2.6,��
2021/05/31,09:00,0.621,0.917,0.581,1.120,0.797,0.369,0.644,0.602,��,3.0,��
2021/05/31,09:10,0.621,0.917,0.583,1.121,0.795,0.371,0.644,0.602,���k��,2.6,��
2021/05/31,09:20,0.621,0.919,0.580,1.120,0.797,0.371,0.643,0.602,���k��,3.9,��
2021/05/31,09:30,0.621,0.919,0.581,1.122,0.796,0.372,0.645,0.603,��,3.7,��
2021/05/31,09:40,0.621,0.916,0.580,1.120,0.795,0.371,0.643,0.601,��,3.1,��
2021/05/31,09:50,0.622,0.917,0.579,1.121,0.796,0.372,0.644,0.602,���k��,3.6,��
2021/05/31,10:00,0.622,0.916,0.582,1.119,0.798,0.371,0.645,0.602,��,3.4,��
2021/05/31,10:10,0.623,0.918,0.580,1.121,0.800,0.371,0.644,0.602,��,3.3,��
2021/05/31,10:20,0.624,0.917,0.581,1.118,0.799,0.370,0.644,0.601,��,3.4,��
2021/05/31,10:30,0.623,0.919,0.583,1.120,0.798,0.371,0.644,0.601,���쓌,3.4,��
2021/05/31,10:40,0.621,0.920,0.582,1.122,0.796,0.370,0.645,0.600,�쓌,3.3,��
2021/05/31,10:50,0.623,0.920,0.583,1.119,0.799,0.370,0.646,0.604,�쓌,3.8,��
2021/05/31,11:00,0.624,0.921,0.582,1.120,0.800,0.370,0.646,0.603,�쓌,4.3,��
2021/05/31,11:10,0.623,0.920,0.583,1.122,0.801,0.372,0.646,0.603,�쓌,4.2,��
2021/05/31,11:20,0.621,0.922,0.581,1.119,0.798,0.372,0.645,0.603,���쓌,3.2,��
2021/05/31,11:30,0.625,0.923,0.584,1.117,0.802,0.371,0.644,0.603,���쓌,2.9,��
2021/05/31,11:40,0.624,0.921,0.582,1.119,0.799,0.372,0.643,0.601,�쓌,4.0,��
2021/05/31,11:50,0.623,0.923,0.583,1.119,0.800,0.372,0.645,0.602,�쓌,3.6,��
2021/05/31,12:00,0.624,0.923,0.583,1.118,0.799,0.372,0.643,0.603,�쓌,4.9,��
2021/05/31,12:10,0.625,0.924,0.582,1.119,0.801,0.371,0.645,0.604,���쓌,3.8,��
2021/05/31,12:20,0.625,0.926,0.584,1.120,0.803,0.373,0.646,0.603,���쓌,4.0,��
2021/05/31,12:30,0.624,0.924,0.583,1.119,0.803,0.371,0.646,0.603,���쓌,3.9,��
2021/05/31,12:40,0.623,0.925,0.585,1.120,0.803,0.371,0.647,0.602,�쓌,3.2,��
2021/05/31,12:50,0.625,0.924,0.582,1.117,0.802,0.373,0.644,0.602,���쓌,3.6,��
2021/05/31,13:00,0.624,0.923,0.583,1.119,0.804,0.372,0.644,0.601,���쓌,4.5,��
2021/05/31,13:10,0.625,0.922,0.584,1.121,0.804,0.371,0.646,0.602,�쓌,4.7,��
2021/05/31,13:20,0.623,0.922,0.585,1.120,0.803,0.371,0.646,0.603,�쓌,3.9,��
2021/05/31,13:30,0.624,0.924,0.583,1.119,0.805,0.372,0.645,0.601,��쓌,4.9,��
2021/05/31,13:40,0.625,0.924,0.584,1.121,0.803,0.372,0.645,0.603,�쓌,4.2,��
2021/05/31,13:50,0.624,0.921,0.584,1.121,0.805,0.371,0.645,0.601,�쓌,4.7,��
2021/05/31,14:00,0.625,0.925,0.585,1.119,0.804,0.372,0.646,0.602,��쓌,4.1,��
2021/05/31,14:10,0.624,0.923,0.584,1.122,0.805,0.372,0.646,0.603,�쓌,4.1,��
2021/05/31,14:20,0.624,0.924,0.583,1.121,0.804,0.372,0.645,0.604,��쓌,3.6,��
2021/05/31,14:30,0.625,0.926,0.585,1.122,0.803,0.372,0.644,0.602,�쓌,4.2,��
2021/05/31,14:40,0.625,0.926,0.586,1.121,0.803,0.372,0.646,0.601,��쓌,3.7,��
2021/05/31,14:50,0.624,0.924,0.583,1.121,0.805,0.373,0.644,0.603,��쓌,3.8,��
2021/05/31,15:00,0.625,0.922,0.583,1.123,0.804,0.373,0.645,0.604,��쓌,4.3,��
2021/05/31,15:10,0.624,0.926,0.584,1.125,0.804,0.371,0.645,0.602,��쓌,4.5,��
2021/05/31,15:20,0.626,0.925,0.585,1.124,0.805,0.373,0.647,0.602,��쓌,3.4,��
2021/05/31,15:30,0.624,0.927,0.584,1.125,0.804,0.371,0.644,0.602,��쓌,3.7,��
2021/05/31,15:40,0.625,0.926,0.583,1.124,0.805,0.372,0.645,0.603,�쓌,3.5,��
2021/05/31,15:50,0.624,0.926,0.583,1.121,0.804,0.372,0.645,0.602,�쓌,4.8,��
2021/05/31,16:00,0.625,0.926,0.583,1.123,0.805,0.373,0.645,0.602,�쓌,4.2,��
2021/05/31,16:10,0.624,0.927,0.584,1.124,0.804,0.372,0.645,0.603,�쓌,4.7,��
2021/05/31,16:20,0.626,0.927,0.584,1.123,0.804,0.372,0.646,0.601,��쓌,4.8,��
2021/05/31,16:30,0.624,0.928,0.584,1.123,0.804,0.372,0.646,0.603,��쓌,5.1,��
2021/05/31,16:40,0.623,0.928,0.585,1.123,0.805,0.372,0.645,0.604,��쓌,5.1,��
2021/05/31,16:50,0.626,0.929,0.584,1.123,0.805,0.372,0.645,0.601,��쓌,5.3,��
2021/05/31,17:00,0.624,0.930,0.585,1.122,0.806,0.371,0.646,0.602,��쓌,5.2,��
2021/05/31,17:10,0.626,0.929,0.584,1.121,0.804,0.372,0.644,0.603,��쓌,4.9,��
2021/05/31,17:20,0.626,0.929,0.582,1.123,0.804,0.371,0.645,0.603,��쓌,4.4,��
2021/05/31,17:30,0.624,0.929,0.584,1.123,0.804,0.372,0.646,0.603,��쓌,4.1,��
2021/05/31,17:40,0.624,0.930,0.584,1.123,0.804,0.370,0.645,0.602,��쓌,4.0,��
2021/05/31,17:50,0.625,0.928,0.585,1.126,0.804,0.371,0.644,0.604,��,5.1,��
2021/05/31,18:00,0.626,0.929,0.585,1.123,0.805,0.373,0.645,0.605,��,6.1,��
2021/05/31,18:10,0.622,0.933,0.585,1.128,0.803,0.372,0.644,0.605,��,4.9,��
2021/05/31,18:20,0.625,0.931,0.585,1.125,0.803,0.371,0.645,0.605,��,6.0,��
2021/05/31,18:30,0.625,0.933,0.586,1.126,0.805,0.373,0.644,0.606,��,5.2,��
2021/05/31,18:40,0.627,0.933,0.587,1.126,0.805,0.371,0.642,0.606,��,4.5,��
2021/05/31,18:50,0.629,0.932,0.587,1.128,0.804,0.372,0.645,0.605,��,5.2,��
2021/05/31,19:00,0.626,0.931,0.587,1.126,0.805,0.373,0.647,0.605,��,5.0,��
2021/05/31,19:10,0.628,0.933,0.586,1.126,0.807,0.374,0.647,0.607,��,5.0,��
2021/05/31,19:20,0.625,0.933,0.586,1.126,0.807,0.374,0.648,0.605,��,5.6,��
2021/05/31,19:30,0.625,0.932,0.588,1.129,0.807,0.372,0.647,0.605,��,5.6,��
2021/05/31,19:40,0.627,0.930,0.587,1.126,0.805,0.373,0.648,0.605,��,5.5,��
2021/05/31,19:50,0.629,0.931,0.586,1.128,0.808,0.373,0.647,0.604,��,6.5,��
2021/05/31,20:00,0.629,0.932,0.587,1.128,0.807,0.372,0.648,0.606,��,6.4,�L
2021/05/31,20:10,0.626,0.932,0.587,1.130,0.806,0.373,0.648,0.605,��,6.5,�L
2021/05/31,20:20,0.626,0.933,0.588,1.126,0.807,0.373,0.648,0.605,��,6.4,�L
2021/05/31,20:30,0.629,0.934,0.587,1.128,0.807,0.375,0.648,0.607,��,5.5,�L
2021/05/31,20:40,0.627,0.933,0.587,1.128,0.806,0.374,0.647,0.605,��,7.4,��
2021/05/31,20:50,0.629,0.935,0.587,1.129,0.808,0.374,0.648,0.605,��,5.9,��
2021/05/31,21:00,0.627,0.933,0.588,1.127,0.807,0.373,0.646,0.605,��,6.8,��
2021/05/31,21:10,0.627,0.933,0.587,1.127,0.806,0.373,0.647,0.607,��,6.9,��
2021/05/31,21:20,0.626,0.933,0.586,1.129,0.806,0.373,0.646,0.605,��쐼,6.3,��
2021/05/31,21:30,0.625,0.934,0.588,1.125,0.806,0.373,0.647,0.605,��쐼,6.0,��
2021/05/31,21:40,0.625,0.934,0.587,1.128,0.806,0.373,0.647,0.607,��,6.7,��
2021/05/31,21:50,0.627,0.934,0.586,1.127,0.807,0.374,0.648,0.605,��쐼,6.6,��
2021/05/31,22:00,0.627,0.933,0.586,1.129,0.806,0.373,0.646,0.604,��쐼,5.9,��
2021/05/31,22:10,0.628,0.935,0.587,1.128,0.807,0.373,0.647,0.604,��쐼,4.7,��
2021/05/31,22:20,0.627,0.934,0.585,1.127,0.807,0.373,0.647,0.606,��쐼,5.8,��
2021/05/31,22:30,0.627,0.934,0.587,1.127,0.806,0.373,0.647,0.606,��쐼,6.0,��
2021/05/31,22:40,0.625,0.933,0.586,1.126,0.808,0.373,0.648,0.605,��쐼,5.2,��
2021/05/31,22:50,0.628,0.933,0.586,1.126,0.808,0.372,0.646,0.604,��쐼,4.0,��
2021/05/31,23:00,0.628,0.936,0.587,1.129,0.807,0.373,0.647,0.606,��쐼,3.3,��
2021/05/31,23:10,0.628,0.934,0.587,1.128,0.807,0.373,0.648,0.606,��쐼,4.0,��
2021/05/31,23:20,0.627,0.932,0.586,1.126,0.809,0.373,0.647,0.605,��쐼,4.3,��
2021/05/31,23:30,0.628,0.932,0.587,1.127,0.807,0.373,0.647,0.606,��쐼,3.3,��
2021/05/31,23:40,0.628,0.932,0.588,1.127,0.809,0.372,0.645,0.606,��쐼,2.6,��
2021/05/31,23:50,0.627,0.933,0.587,1.124,0.806,0.373,0.646,0.605,���k��,0.6,��
